Dewpoint
-11 -12 -13 -13 -14 -14 -15 -15 -16 -16 -17 -18 -18 -18 -18 -18 -9 -4 1 -5 -7 -18 -17 -7 -6 -6 -6 -1 2 2 9 5 0 1 1 -1 2 2 5 7 8 8 11 13 14
-11 -12 -12 -13 -14 -15 -15 -16 -16 -17 -18 -18 -19 -19 -18 -13 1 6 -0 -15 -18 -18 -5 -6 -10 -8 -1 3 3 7 10 6 -3 -2 -1 -2 -1 1 9 10 10 11 13 13 14
-11 -12 -12 -13 -14 -15 -16 -16 -17 -17 -18 -19 -19 -19 -19 -8 3 1 -13 -16 -18 -15 -2 -6 -11 -2 2 1 2 7 10 3 -4 -3 -3 -2 -0 -1 8 13 13 12 13 13 14
-11 -12 -13 -13 -14 -15 -16 -16 -17 -18 -18 -19 -19 -20 -19 -8 4 -2 -13 -17 -18 -15 -1 -6 -5 0 2 1 -0 2 -3 -4 -5 -5 -4 -3 -2 -0 0 8 8 12 13 13 14
-11 -12 -13 -14 -14 -15 -16 -17 -17 -18 -18 -19 -19 -20 -19 1 2 -4 -8 -17 -12 -4 -4 -7 -5 -0 1 -0 -2 -1 -4 -4 -4 -4 -3 -2 -2 -2 0 6 7 12 13 13 13
-12 -12 -13 -14 -15 -16 -16 -17 -18 -18 -18 -19 -19 -20 -12 -4 2 -7 -5 -10 -2 -7 -6 -6 -7 -3 -0 -2 -2 -2 -3 -3 -3 -3 -3 -1 1 -1 2 4 7 11 13 13 12
-12 -12 -13 -14 -15 -16 -17 -17 -18 -18 -18 -18 -18 -19 -3 -8 -1 1 -1 -3 -7 -7 -6 -5 -4 -4 -4 -3 -3 -3 -3 -3 -3 -4 -5 0 5 4 6 5 8 10 12 12 12
-12 -12 -13 -14 -15 -16 -17 -18 -18 -19 -19 -17 -15 -17 -2 -6 -5 0 -2 -4 -7 -9 -4 -4 -5 -6 -7 -5 -5 -5 -4 -2 -4 -3 -4 -1 12 9 3 6 9 10 11 12 12
-13 -13 -14 -14 -16 -16 -17 -18 -19 -19 -18 -17 -0 4 -4 -5 -11 -3 -3 -5 -7 -10 -5 -4 -6 -7 -10 -9 -8 -7 -3 -4 -2 -4 -5 -5 3 2 0 6 9 10 11 12 12
-14 -14 -15 -15 -16 -17 -18 -19 -19 -19 -14 -16 -15 -0 -3 -7 -10 -6 -3 -5 -8 -9 -7 -6 -7 -6 -9 -9 -9 -8 -9 -10 -6 -5 -4 -5 -4 1 2 3 10 11 12 13 14
-15 -15 -16 -16 -17 -17 -18 -17 0 4 -2 -4 -5 -11 -8 -7 -8 -5 -3 -8 -9 -10 -7 -8 -7 -8 -11 -11 -9 -8 -6 -7 -8 -9 -4 -5 -4 -4 2 2 7 11 13 13 14
-15 -16 -17 -17 -18 -18 -18 -2 -4 -6 -6 -6 -6 -7 -9 -6 -7 -9 -5 -8 -9 -9 -10 -6 -8 -10 -10 -8 -9 -10 -11 -10 -10 -8 -4 -4 -5 -6 -4 0 2 8 13 14 14
-15 -17 -18 -18 -19 -17 -9 -5 -4 -8 -8 -12 -13 -12 -10 -9 -8 -9 -6 -8 -8 -9 -10 -7 -8 -8 -8 -9 -11 -11 -10 -9 -7 -5 -4 -4 -3 -3 -5 -1 -0 1 11 13 13
-15 -16 -18 -19 -17 -5 -9 -3 -8 -6 -6 -12 -12 -12 -14 -12 -11 -10 -7 -8 -6 -6 -9 -8 -10 -7 -7 -9 -10 -8 -7 -10 -9 -6 -4 -5 -1 0 -2 1 0 2 4 11 12
-16 -17 -17 -19 -7 -7 -3 -6 -7 -5 -3 -15 -12 -14 -15 -12 -14 -11 -7 -8 -6 -6 -5 -6 -7 -7 -6 -10 -11 -8 -4 -4 -7 -5 -4 -5 -5 4 -0 -2 1 3 4 6 12
-18 -19 -18 -7 -17 -9 -8 -8 -6 -4 -7 -10 -11 -11 -13 -13 -14 -11 -7 -8 -6 -4 -6 -5 -6 -7 -8 -9 -9 -9 -5 -5 -6 -5 -1 -3 -5 -2 3 4 -2 2 3 6 11
-18 -20 -20 -16 -5 -6 -9 -8 -4 -4 -13 -10 -10 -11 -13 -12 -13 -10 -6 -5 -3 -1 -0 -4 -5 -6 -8 -7 -8 -7 -5 -1 1 1 4 7 1 0 -5 -3 -2 1 4 5 11
-18 -21 -21 -20 -6 -5 -7 -6 -2 -9 -10 -14 -11 -12 -12 -13 -13 -12 -6 -4 -5 -4 -4 -2 -3 -7 -8 -7 -5 -4 -4 -1 4 1 5 4 7 4 -4 -4 -0 2 2 6 10
-20 -6 -16 -12 -20 -7 -6 -4 -4 -6 -12 -11 -11 -10 -10 -13 -12 -12 -5 -5 -5 -5 -1 -3 -2 -7 -7 -7 -7 -4 -1 -4 -2 -2 -3 -3 2 1 2 -2 0 4 4 7 9
-20 -5 -5 -5 -4 -5 -6 -4 -8 -10 -11 -12 -9 -10 -9 -11 -11 -10 -6 -6 -6 -6 -6 -3 -1 -6 -7 -8 -8 -6 -7 -2 -2 3 3 -3 6 10 9 8 5 5 5 8 9
-14 -3 -2 -4 -5 -7 -8 -8 -8 -9 -10 -11 -10 -9 -9 -8 -11 -10 -8 -8 -8 -7 -6 -5 -3 -4 -5 -4 -4 -5 -4 -6 -5 -1 1 3 6 8 8 4 9 7 7 9 9
1 -3 -2 -7 -8 -11 -10 -11 -12 -10 -10 -11 -11 -8 -8 -6 -6 -9 -9 -8 -9 -9 -5 -5 -4 -1 -3 -6 -7 -7 -3 -3 -1 4 0 1 5 3 5 5 -1 5 9 9 10
3 -3 -3 -8 -10 -11 -11 -13 -13 -11 -10 -11 -12 -12 -9 -6 -2 -5 -8 -9 -10 -10 -2 -4 -3 -1 -0 -4 -7 -6 -6 -6 -2 5 6 6 14 8 7 6 2 8 10 10 11
3 -3 -6 -6 -10 -8 -6 -11 -11 -11 -10 -11 -13 -14 -11 -6 -5 1 -6 -9 -10 -9 -4 -3 -0 -1 -1 -1 -1 -0 -4 -6 -5 0 1 -1 6 9 10 11 11 9 11 11 13
2 -2 -1 -6 -11 -9 -6 -7 -9 -7 -12 -11 -11 -12 -9 -6 -6 -3 -5 -7 -10 -7 -5 -3 2 -0 -3 -5 -4 -2 -0 0 -5 -4 -1 -2 4 9 11 12 10 11 11 11 14
-3 -0 1 -3 -2 -2 -6 -5 -6 -7 -9 -7 -6 -8 -9 -7 -7 -6 -7 -1 -7 -8 -4 -3 4 1 1 -2 -4 -5 -7 -7 -8 -6 -5 -4 0 10 9 5 7 13 11 11 13
-1 -1 -2 -2 -6 -2 -3 -6 -6 -6 -7 -6 -6 -6 -8 -4 -2 -0 -0 1 3 3 2 4 3 6 4 -1 -2 -1 -5 -6 -6 -8 -6 -2 9 11 13 13 12 13 12 12 12
Wind_Speed
7 7 8 9 9 10 10 10 11 11 11 12 11 11 11 10 4 5 3 5 8 7 4 4 11 13 15 16 14 18 7 4 10 15 12 9 12 9 13 10 12 11 21 24 21
8 9 9 9 9 10 11 11 11 11 12 12 12 11 11 10 2 1 8 6 5 3 3 5 8 10 14 13 11 21 6 7 13 10 6 11 5 6 17 24 9 20 20 21 21
8 9 9 10 10 11 12 12 12 12 12 12 12 10 10 9 3 2 3 2 2 5 4 6 9 10 18 9 10 17 7 11 13 8 7 13 9 1 26 12 35 19 21 22 20
9 9 10 11 11 11 11 13 12 12 12 12 11 10 8 6 2 2 3 3 2 2 2 6 8 14 10 6 3 5 4 8 9 4 4 9 11 10 7 18 16 20 20 21 19
10 10 11 11 12 12 12 12 12 12 12 12 11 8 7 7 2 1 3 4 3 5 4 4 8 12 12 2 2 10 4 1 2 2 3 5 9 4 7 17 14 18 19 19 17
11 11 11 12 12 12 12 13 12 12 11 12 10 8 4 11 1 2 1 3 3 2 3 5 8 9 9 4 7 10 5 10 7 7 6 1 17 7 10 10 13 17 19 18 17
12 12 13 13 13 12 12 12 12 11 11 10 9 8 7 6 4 3 6 1 4 4 4 4 6 7 8 7 10 6 10 12 14 5 5 10 14 15 9 12 11 15 18 18 17
12 13 13 14 13 13 13 12 11 10 10 9 7 6 7 5 5 8 7 5 5 4 5 4 6 10 13 12 7 11 13 14 14 5 3 6 15 35 10 15 12 13 15 19 16
13 14 14 14 14 13 12 12 11 10 9 7 4 5 11 5 9 10 9 7 6 6 6 6 6 12 14 10 11 14 12 14 9 8 7 5 10 10 4 14 14 10 12 17 17
14 14 14 14 14 14 12 11 10 10 8 8 7 8 13 8 7 11 10 7 6 6 7 8 8 11 10 11 12 10 11 8 1 3 8 8 8 11 9 8 17 13 11 13 15
14 14 14 13 12 12 9 8 9 2 5 13 9 12 6 3 8 10 11 8 9 8 10 12 9 12 14 13 8 10 12 12 6 2 2 11 6 6 13 7 15 18 15 14 14
14 13 13 13 10 8 4 4 4 6 11 15 18 14 4 8 9 11 13 11 12 11 13 9 11 15 2 7 8 10 10 10 9 5 3 11 11 8 5 8 6 17 21 16 15
13 13 12 11 8 4 3 9 6 8 8 17 22 23 16 13 13 15 18 18 12 12 14 14 4 6 2 5 7 11 10 11 7 4 8 13 14 16 13 13 9 5 22 19 18
13 12 11 6 1 2 6 3 4 6 5 13 16 16 20 14 13 16 20 18 9 13 14 10 14 4 6 8 12 12 11 5 10 9 11 5 10 6 12 11 12 12 8 20 16
13 11 8 7 3 1 2 4 6 4 5 12 18 11 16 20 7 20 18 21 16 12 9 12 11 7 8 11 11 11 6 7 9 11 13 16 8 8 6 1 15 15 13 8 18
13 11 7 3 8 6 8 6 4 6 11 8 10 12 16 20 21 17 20 21 14 13 10 17 1 6 10 9 6 9 5 10 11 12 12 15 10 6 8 12 1 13 7 11 17
13 12 8 11 7 2 6 6 5 9 16 12 16 14 20 16 22 14 18 18 14 11 13 14 14 10 9 10 11 9 9 7 9 11 3 17 12 7 8 12 9 7 13 9 18
13 11 10 11 10 7 5 8 10 13 22 9 12 17 19 19 19 17 15 17 20 17 13 12 14 19 12 13 8 10 12 9 15 13 4 12 6 22 8 12 15 7 4 13 18
12 7 7 5 13 6 9 10 10 18 9 8 8 9 17 20 13 20 19 19 19 19 16 9 10 15 17 10 11 11 12 14 13 16 14 10 8 12 16 5 15 14 12 15 18
9 5 10 9 7 6 9 17 18 10 8 5 9 11 14 18 19 20 17 19 19 21 20 10 6 9 11 6 11 11 14 7 9 14 14 13 7 2 8 16 13 10 12 16 17
6 6 10 8 8 11 11 17 18 12 2 3 12 14 13 7 16 15 14 16 19 18 18 15 5 5 10 8 12 10 11 11 13 13 12 11 1 12 13 10 10 13 14 16 16
8 5 8 11 11 14 13 18 23 16 5 9 7 14 9 9 9 15 15 15 10 18 16 13 7 11 11 11 15 14 10 10 9 10 11 11 4 8 13 16 7 20 17 15 16
7 7 7 13 7 11 17 21 24 15 5 7 9 9 13 3 4 10 3 14 8 5 5 5 8 10 12 12 12 9 12 14 11 9 13 8 5 9 23 20 11 20 15 17 18
7 4 9 13 20 16 14 18 20 4 13 12 11 11 7 9 6 8 6 6 3 3 9 7 9 9 12 5 8 9 12 13 14 9 13 13 10 14 4 27 43 16 16 17 16
7 5 7 4 13 14 13 11 13 11 12 11 8 12 9 8 13 12 7 6 8 2 5 5 8 11 15 18 14 12 6 25 15 14 14 15 7 5 16 17 48 22 17 17 16
9 10 19 17 8 12 11 12 8 16 11 14 11 12 11 11 13 9 10 13 4 9 10 12 9 11 17 20 20 20 14 14 14 14 12 14 11 24 17 12 34 17 15 16 15
11 9 10 13 7 8 10 10 14 12 17 8 5 12 13 5 8 11 12 8 8 7 4 9 7 8 15 17 19 16 12 15 13 13 15 12 16 25 20 17 28 16 11 14 16
Wind_Direction
10 6 5 8 357 353 356 356 358 356 354 358 354 350 346 341 338 92 4 265 254 276 287 305 277 276 279 276 272 264 332 341 63 66 110 68 126 94 83 115 86 64 117 137 143
355 352 353 347 345 347 346 347 351 350 349 355 346 347 344 339 28 211 284 285 257 231 104 295 280 270 263 271 68 62 351 304 49 35 36 110 42 130 136 44 97 105 116 135 144
342 341 337 335 338 340 340 339 342 344 346 347 341 343 344 330 290 125 329 2 153 155 102 298 289 279 269 270 128 133 225 221 87 4 11 356 143 23 115 117 224 137 141 146 150
332 330 328 326 332 332 332 332 335 340 340 337 337 342 336 323 1 20 35 60 102 115 349 266 262 261 273 234 44 222 58 356 63 55 353 22 344 65 61 132 127 145 151 152 159
322 322 321 321 325 325 325 326 329 331 335 332 333 340 335 286 27 9 35 67 73 14 274 245 254 258 275 279 28 289 81 304 235 270 344 341 275 57 65 94 119 143 156 161 164
315 316 316 316 318 319 319 318 322 325 330 328 332 332 319 275 312 319 329 89 39 260 256 245 271 332 313 327 286 357 345 306 289 289 263 260 334 141 111 115 136 154 163 170 170
311 311 311 312 313 314 313 314 316 321 324 326 331 325 280 269 174 236 201 241 247 268 261 270 301 275 307 258 237 280 270 251 232 230 296 53 357 328 125 137 150 162 171 176 174
310 308 308 309 310 310 309 310 311 313 316 321 334 320 277 193 219 208 211 239 253 246 278 275 272 276 288 288 287 250 256 259 236 117 151 175 165 254 167 150 160 171 178 173 175
310 310 309 307 307 306 306 306 302 301 301 304 346 327 277 238 214 210 202 225 232 232 252 272 271 257 254 236 254 227 254 242 135 118 333 282 162 140 187 140 146 167 185 174 179
309 309 309 306 305 306 307 306 298 281 281 273 241 277 229 245 199 194 201 219 221 232 246 249 245 248 222 242 249 313 223 257 130 122 176 271 254 142 147 186 156 168 181 187 188
307 307 306 302 303 308 314 318 301 41 238 238 309 237 149 156 166 197 199 212 221 235 238 201 230 233 242 227 350 339 321 332 11 146 47 288 313 281 148 173 171 155 171 196 200
309 305 302 300 302 302 307 298 40 324 297 258 248 251 221 198 200 208 199 209 209 227 221 232 231 256 311 20 343 298 285 282 270 128 218 279 278 268 200 155 196 170 167 189 194
312 308 303 301 308 314 261 291 314 327 264 266 232 225 218 227 239 199 197 213 205 224 231 244 144 37 17 302 268 265 270 273 305 313 231 242 257 244 231 155 189 213 171 176 195
314 312 308 297 262 250 271 240 318 310 270 248 194 221 213 212 228 232 199 212 239 234 237 229 260 175 251 243 254 265 307 232 300 288 275 330 270 214 191 186 172 175 180 173 182
314 312 306 279 265 200 314 319 302 267 264 206 173 204 193 196 212 205 195 214 236 219 256 227 236 251 233 248 244 263 8 305 274 271 273 269 252 79 170 274 178 169 153 175 160
312 307 299 313 261 229 318 290 287 233 235 147 143 192 192 202 236 176 192 216 231 264 215 265 171 263 247 236 251 276 296 266 259 256 258 259 249 161 129 157 103 113 114 158 150
309 298 274 234 188 224 278 248 222 234 240 169 172 200 206 191 219 181 191 201 219 215 236 228 243 209 248 237 209 236 253 256 239 236 333 358 325 317 104 123 110 97 132 151 151
306 289 267 237 212 266 261 228 240 217 247 236 187 194 203 203 208 194 206 209 219 222 245 217 217 215 190 242 224 217 249 273 300 297 112 193 218 263 115 124 122 138 127 145 158
312 299 276 238 221 221 234 220 217 249 256 198 215 229 205 212 196 211 212 215 211 227 242 269 226 165 191 194 236 255 234 245 280 282 279 244 197 41 12 345 131 133 141 150 162
319 255 243 193 191 190 229 238 236 259 342 348 248 212 231 224 190 203 200 221 224 211 235 263 264 169 164 236 250 247 279 253 230 262 272 276 98 103 93 290 122 131 148 147 162
311 239 166 211 181 206 227 228 242 278 315 297 270 297 261 252 215 219 210 218 216 222 205 243 247 255 136 202 249 205 235 257 277 289 302 294 170 153 168 207 166 157 155 157 164
281 257 176 167 195 223 233 239 256 274 148 262 272 283 272 273 254 209 230 236 207 224 190 216 241 243 240 225 213 245 288 203 241 257 250 276 68 165 202 230 277 141 150 161 160
289 254 175 179 218 231 230 247 244 249 227 236 256 255 313 339 317 304 252 28 99 207 37 253 226 255 251 274 241 220 254 269 271 280 279 295 253 11 334 350 266 125 151 157 157
291 229 163 209 244 280 277 221 239 193 262 241 255 263 227 273 210 296 287 106 58 336 6 311 273 226 262 346 327 312 224 251 263 259 269 258 114 187 22 21 336 143 156 153 145
249 317 353 178 217 242 262 274 227 236 218 278 245 257 229 236 250 230 281 241 140 243 288 266 267 283 273 280 269 202 216 287 231 242 251 275 249 163 103 98 267 138 154 148 157
324 346 338 291 316 301 215 250 273 241 205 223 231 257 231 249 262 260 231 296 173 203 217 241 244 260 278 283 274 263 256 264 281 291 255 264 291 85 60 267 292 137 152 150 171
351 319 287 297 237 257 255 215 249 257 287 222 235 238 254 304 351 359 14 351 29 352 280 247 232 247 264 262 265 268 254 258 263 251 271 278 126 115 128 222 257 144 153 167 177
Height
1529 1528 1526 1524 1525 1524 1522 1520 1518 1517 1516 1513 1512 1510 1508 1506 1505 1504 1504 1504 1503 1501 1500 1498 1499 1496 1494 1493 1487 1485 1493 1483 1475 1478 1479 1477 1481 1487 1497 1502 1503 1504 1505 1513 1521
1528 1528 1526 1526 1526 1524 1522 1520 1517 1516 1515 1513 1512 1509 1507 1505 1504 1504 1505 1502 1501 1501 1500 1502 1499 1496 1492 1486 1487 1495 1506 1493 1475 1478 1478 1480 1480 1483 1495 1507 1508 1507 1513 1516 1521
1529 1528 1528 1526 1524 1522 1521 1519 1517 1516 1514 1513 1512 1509 1507 1505 1504 1505 1503 1502 1501 1501 1501 1502 1501 1496 1489 1483 1483 1510 1515 1485 1480 1484 1482 1478 1480 1482 1493 1509 1511 1508 1513 1516 1520
1528 1528 1527 1526 1524 1522 1520 1519 1517 1515 1514 1513 1511 1509 1507 1506 1502 1504 1503 1502 1502 1502 1502 1503 1501 1494 1484 1484 1484 1488 1483 1481 1484 1485 1484 1482 1482 1481 1486 1494 1499 1505 1511 1515 1519
1528 1527 1526 1524 1522 1521 1520 1519 1517 1516 1514 1513 1511 1509 1508 1505 1504 1502 1504 1502 1503 1503 1504 1503 1500 1493 1485 1482 1487 1484 1483 1486 1484 1484 1486 1488 1485 1484 1489 1493 1498 1505 1511 1515 1518
1527 1525 1524 1523 1522 1520 1519 1518 1516 1515 1513 1512 1510 1509 1508 1507 1505 1502 1503 1504 1504 1506 1505 1503 1499 1496 1492 1487 1488 1486 1485 1484 1483 1482 1484 1485 1484 1482 1489 1494 1499 1504 1510 1513 1516
1527 1525 1523 1521 1520 1519 1518 1516 1515 1513 1512 1511 1510 1509 1507 1506 1506 1504 1506 1506 1506 1505 1505 1504 1503 1501 1494 1492 1490 1490 1489 1483 1479 1479 1482 1483 1495 1493 1492 1494 1500 1503 1508 1511 1515
1525 1524 1522 1520 1519 1518 1516 1515 1513 1512 1511 1511 1510 1510 1508 1504 1506 1504 1506 1506 1506 1506 1505 1504 1504 1502 1497 1492 1491 1490 1486 1489 1467 1476 1478 1484 1524 1498 1491 1491 1498 1502 1505 1509 1514
1524 1522 1520 1518 1517 1516 1515 1513 1512 1511 1511 1510 1510 1510 1504 1502 1502 1503 1505 1505 1506 1505 1505 1504 1503 1500 1495 1494 1494 1484 1494 1482 1477 1475 1478 1481 1488 1483 1486 1488 1496 1502 1506 1508 1513
1522 1520 1519 1517 1515 1514 1513 1511 1510 1509 1509 1509 1509 1511 1502 1500 1499 1502 1504 1505 1505 1504 1504 1503 1500 1495 1491 1490 1503 1488 1483 1473 1479 1474 1478 1481 1478 1476 1482 1486 1492 1499 1505 1510 1514
1521 1519 1517 1516 1515 1514 1513 1511 1511 1509 1506 1503 1501 1498 1498 1499 1500 1501 1503 1504 1504 1503 1500 1496 1497 1496 1484 1478 1479 1483 1484 1482 1475 1473 1483 1484 1479 1479 1479 1482 1485 1494 1503 1508 1513
1520 1518 1516 1515 1514 1514 1513 1513 1512 1514 1506 1499 1498 1497 1498 1499 1498 1499 1502 1503 1501 1500 1496 1493 1497 1482 1476 1482 1486 1488 1489 1488 1476 1473 1484 1484 1482 1472 1473 1477 1482 1487 1496 1504 1509
1519 1517 1514 1514 1513 1514 1513 1515 1513 1513 1507 1492 1490 1493 1496 1498 1494 1493 1499 1499 1495 1496 1490 1491 1481 1483 1485 1488 1493 1489 1490 1485 1483 1476 1476 1479 1484 1474 1469 1473 1479 1483 1488 1497 1503
1517 1515 1514 1513 1515 1513 1514 1513 1514 1513 1505 1482 1482 1485 1490 1493 1491 1489 1493 1496 1491 1491 1487 1485 1480 1484 1487 1492 1488 1496 1474 1479 1484 1490 1500 1468 1500 1469 1466 1473 1475 1481 1485 1491 1499
1516 1514 1514 1514 1514 1514 1514 1514 1513 1513 1517 1463 1474 1479 1481 1486 1479 1486 1490 1492 1489 1486 1484 1486 1483 1484 1490 1487 1481 1488 1478 1483 1484 1488 1487 1479 1485 1482 1467 1472 1470 1475 1482 1488 1495
1514 1513 1513 1513 1513 1513 1513 1514 1514 1514 1509 1469 1472 1477 1478 1482 1480 1480 1487 1490 1488 1484 1481 1480 1478 1480 1480 1480 1481 1481 1484 1484 1483 1485 1503 1482 1482 1476 1476 1478 1471 1473 1481 1486 1493
1512 1511 1510 1511 1512 1513 1514 1514 1514 1508 1469 1464 1468 1469 1472 1475 1478 1477 1483 1488 1491 1501 1496 1483 1481 1479 1481 1483 1480 1485 1492 1510 1510 1502 1514 1501 1484 1471 1460 1462 1468 1474 1480 1486 1492
1510 1508 1507 1508 1508 1512 1514 1512 1513 1481 1471 1454 1456 1461 1471 1467 1473 1472 1480 1486 1482 1481 1483 1492 1495 1475 1475 1480 1482 1485 1488 1504 1523 1508 1511 1493 1518 1493 1458 1463 1470 1476 1479 1484 1491
1507 1505 1504 1505 1506 1510 1514 1508 1493 1472 1460 1457 1461 1463 1466 1462 1465 1470 1477 1478 1475 1478 1488 1479 1477 1457 1469 1475 1479 1483 1491 1475 1492 1483 1492 1480 1479 1469 1474 1474 1471 1475 1480 1484 1490
1505 1504 1504 1505 1506 1510 1510 1499 1478 1467 1470 1465 1470 1466 1469 1462 1465 1465 1471 1468 1470 1469 1472 1471 1487 1465 1467 1475 1475 1478 1474 1493 1487 1517 1516 1486 1502 1509 1506 1507 1473 1479 1482 1484 1489
1504 1502 1501 1503 1506 1508 1500 1489 1479 1474 1477 1475 1472 1466 1460 1457 1455 1464 1466 1462 1462 1462 1467 1470 1479 1474 1471 1481 1481 1480 1485 1482 1481 1483 1500 1501 1495 1487 1491 1473 1475 1476 1483 1486 1489
1505 1500 1499 1502 1505 1499 1494 1486 1478 1471 1477 1478 1476 1471 1462 1463 1456 1461 1461 1456 1457 1459 1467 1469 1476 1487 1475 1464 1463 1466 1469 1473 1494 1496 1481 1484 1499 1480 1480 1474 1471 1473 1480 1485 1489
1504 1494 1498 1500 1497 1492 1487 1482 1477 1472 1475 1478 1475 1473 1469 1469 1478 1461 1459 1459 1457 1462 1469 1468 1479 1494 1488 1474 1461 1470 1469 1469 1469 1473 1488 1498 1510 1476 1485 1485 1476 1474 1482 1486 1489
1507 1489 1492 1497 1493 1487 1481 1476 1474 1475 1477 1475 1474 1472 1476 1478 1470 1477 1465 1469 1471 1469 1473 1475 1474 1482 1491 1481 1473 1478 1469 1468 1470 1485 1480 1476 1486 1496 1506 1493 1487 1484 1488 1486 1490
1505 1489 1488 1484 1484 1484 1480 1474 1473 1477 1480 1478 1476 1475 1480 1484 1478 1478 1470 1469 1472 1475 1477 1476 1486 1478 1473 1468 1465 1470 1478 1474 1468 1468 1479 1470 1473 1487 1491 1491 1500 1485 1491 1487 1493
1507 1503 1498 1488 1487 1481 1479 1481 1478 1476 1475 1481 1483 1476 1478 1481 1477 1474 1472 1472 1470 1474 1479 1476 1488 1484 1485 1471 1465 1466 1459 1458 1459 1459 1458 1458 1463 1494 1496 1499 1497 1487 1487 1488 1497
1513 1510 1507 1494 1487 1486 1480 1480 1480 1480 1476 1475 1478 1479 1477 1479 1478 1480 1480 1480 1478 1482 1478 1480 1483 1488 1495 1473 1469 1475 1461 1458 1456 1454 1456 1463 1474 1481 1491 1501 1482 1481 1484 1491 1496